This demonstration page uses our WeatherBlox Daily Observations layout. Learn more.

Left ArrowRight Arrow

Hourly Observations for May 19, 2021

Temp ( °F °C ) Dew Point ( °F °C ) Humidity (%) Winds ( mph kmh ) Pressure ( in mb ) Visibility ( mi km ) Precip ( " mm )
12:53 am 00:53 Clear 67 19.4 28 -2.2 23 23 WNW 8 13 29.85 1011 10 16 0.00 0.00
1:53 am 01:53 Clear 65 18.3 29 -1.7 26 26 NW 7 11 29.85 1011 10 16 0.00 0.00
2:53 am 02:53 Clear 63 17.2 31 -0.6 30 30 NNW 5 7 29.87 1011 10 16 0.00 0.00
3:53 am 03:53 Clear 61 16.1 27 -2.8 27 27 W 5 7 29.87 1012 10 16 0.00 0.00
4:53 am 04:53 Clear 59 15 27 -2.8 29 29 W 10 17 29.87 1012 10 16 0.00 0.00
5:53 am 05:53 Sunny 57 13.9 28 -2.2 33 33 SW 3 6 29.89 1012 10 16 0.00 0.00
6:53 am 06:53 Sunny 56 13.3 30 -1.1 37 37 S 6 9 29.91 1013 10 16 0.00 0.00
7:53 am 07:53 Sunny 60 15.6 29 -1.7 31 31 VRB 5 7 29.91 1013 10 16 0.00 0.00
8:53 am 08:53 Sunny 62 16.7 30 -1.1 30 30 VRB 6 9 29.91 1013 10 16 0.00 0.00
9:53 am 09:53 Sunny 66 18.9 32 0 28 28 VRB 6 9 29.89 1012 10 16 0.00 0.00
10:53 am 10:53 Sunny 67 19.4 31 -0.6 26 26 undefined N/A 29.88 1012 10 16 0.00 0.00
11:53 am 11:53 Sunny 70 21.1 33 0.6 26 26 NNW 8 13 29.85 1011 10 16 0.00 0.00
12:53 pm 12:53 Sunny 72 22.2 31 -0.6 22 22 VRB 6 9 29.83 1010 10 16 0.00 0.00
1:53 pm 13:53 Sunny 74 23.3 29 -1.7 19 19 S 10 17 29.80 1009 10 16 0.00 0.00
2:53 pm 14:53 Sunny 76 24.4 23 -5 14 14 undefined N/A 29.77 1008 10 16 0.00 0.00
3:53 pm 15:53 Sunny 77 25 21 -6.1 12 12 NW 7 11 29.75 1008 10 16 0.00 0.00
4:53 pm 16:53 Sunny 76 24.4 22 -5.6 13 13 W 13 20 29.75 1007 10 16 0.00 0.00
5:53 pm 17:53 Sunny 73 22.8 22 -5.6 15 15 WSW 18 30 29.76 1008 10 16 0.00 0.00
6:53 pm 18:53 Sunny 70 21.1 24 -4.4 18 18 WSW 16 26 29.77 1008 10 16 0.00 0.00
7:53 pm 19:53 Sunny 65 18.3 28 -2.2 25 25 WNW 14 22 29.80 1009 10 16 0.00 0.00
8:53 pm 20:53 Clear 61 16.1 29 -1.7 30 30 NW 13 20 29.83 1010 10 16 0.00 0.00
9:53 pm 21:53 Mostly Cloudy 58 14.4 28 -2.2 32 32 WNW 14 22 29.87 1011 10 16 0.00 0.00
10:53 pm 22:53 Mostly Cloudy 57 13.9 27 -2.8 32 32 NW 9 15 29.89 1012 10 16 0.00 0.00
11:53 pm 23:53 Cloudy 56 13.3 26 -3.3 32 32 NW 9 15 29.91 1013 10 16 0.00 0.00

Powered by AerisWeather